Погода в Бресте

Погода в Бресте : погода сейчас, прогноз погоды и архив. Всё, что Вы хотите узнать о погоде в Бресте!

Поиск расширенной информации на нашем сайте:

Другие новости

Новости СМИ2

Главная страница сайта

Новости сайта

03.07.2017

Напоминаем, что на нашем специализированном сайте Метеоцентр.Азия вы можете получить высокодетализированные автоматические прогнозы погоды по пунктам России, СНГ и мира в авиационном формате (включающие направление и скорость ветра, видимость, явления погоды, количество и форму облачности, нижнюю и верхнюю границу облачности).


Погода в Бресте - сегодня

Время (UTC), дата Ветер
(°,м/с) 
Видим.   Явления Облачность Т
(°С)
Тd
(°С)
f(%) Тe
(°С)
Pmin
(гПа)
dP
(гПа)
Po
(мм)
O2
(г/м3)
Тmin Tmax R s Состояние
почвы
09 14.10.18 110 (В) 30000 м    ясно 
+16.2 +4.9 47 +17  1029.6  -0.1  759  288           
12 14.10.18 140 (ЮВ) 30000 м    ясно 
+20.3 +2.2 30 +20  1027.9  -1.4  758  284           
15 14.10.18 130 (ЮВ) 20000 м    ясно 
+18.8 +1.8 32 +20  1026.9  -1  757  285           
18 14.10.18 110 (В) 30000 м    ясно 
+14 +2.2 45 +15  1027  -0.3  757  290    +20.6       
21 14.10.18 120 (ЮВ) 30000 м    ясно 
+8.6 +2.2 64 +10  1027.5  0.2  757  295           
00 15.10.18 100 (В) 30000 м    ясно 
+5.3 +1.8 78 +6  1027.8  757  299           
03 15.10.18 120 (ЮВ) 30000 м    ясно 
+6 +2.1 76 +7  1027.3  -0.4  757  298           
06 15.10.18 110 (В) 20000 м    3/0 верхняя 
[Ci fib]
+6.1 +2.6 78 +7  1027.2  -0.1  757  298  +4.5         
09 15.10.18 150 (ЮВ) 30000 м    3/0 верхняя 
[Ci fib]
+14.2 +4.8 53 +15  1026.7  0.1  757  289           
12 15.10.18 100 (В) 20000 м    3/0 верхняя 
[Ci sp]
+19.1 +6.9 45 +20  1025.5  -0.9  756  284           
15 15.10.18 110 (В) 20000 м    3/0 верхняя 
[Ci]
+19.1 +5.5 41 +21  1025  -0.5  756  284           
18 15.10.18 тихо ()   15000 м    ясно 
+9.9 +6.6 80 +10  1025.6  756  293    +20       
21 15.10.18 130 (ЮВ) 20000 м    ясно 
+11.6 +4.8 63 +13  1025  -0.5  755  291           
00 16.10.18 тихо ()   20000 м    ясно 
+9 +4.8 75 +9  1025  -0.2  755  294           
03 16.10.18 тихо ()   15000 м    ясно 
+5.2 +4 92 +5  1024.9  -0.3  755  298           
06 16.10.18 120 (ЮВ) 15000 м    8/0 средняя 
[Ac und]
+7.7 +4.3 79 +9  1024.6  -0.1  755  295  +4.5         
09 16.10.18 130 (ЮВ) 15000 м    1/0 средняя 
[Ac trans]
+13.9 +5.3 56 +15  1024.3  0.1  755  289           
12 16.10.18 090 (В) 15000 м    1/0 верхняя 
[Ci fib]
+19.3 +6.4 43 +20  1023.3  -0.6  755  283           
15 16.10.18 360 (С) 15000 м    ясно 
+19.1 +6.2 43 +21  1023  -0.3  754  283           
18 16.10.18 120 (ЮВ) 15000 м    ясно 
+12.7 +6.7 67 +14  1024.1  0.6  755  290    +20.9       
21 16.10.18 160 (Ю) 20000 м    ясно 
+10.2 +4.8 69 +11  1024.5  0.2  755  293           
00 17.10.18 тихо ()   12000 м    ясно 
+5.1 +3.3 88 +5  1024.8  755  298           
03 17.10.18 тихо ()   6000 м  дымка  ясно 
+3.6 +2.6 93 +4  1025.1  0.2  755  300           
06 17.10.18 тихо ()   6000 м  дымка  ясно 
+4.7 +3.7 93 +5  1025.6  0.5  756  299  +3         
09 17.10.18 090 (В) 12000 м    4/0 верхняя 
[Ci fib]
+16.9 +5.5 47 +18  1024.7  756  286           
Время (UTC), дата Ветер
(°,м/с) 
Видим.   Явления Облачность Т
(°С)
Тd
(°С)
f(%) Тe
(°С)
Pmin
(гПа)
dP
(гПа)
Po
(мм)
O2
(г/м3)
Тmin Tmax R s Состояние
почвы

Для получения пояснительной информации подведите курсор к названию столбца.

ПОГОДА в Бресте - архив

Всё, что Вы хотите узнать о погоде в Бресте - удобно и подробно!

Выберите нужную дату (начиная с 1 января 2015* года) и нажмите кнопку "Найти".
Будут отображены архивные сводки погоды по пункту Брест, начиная с указанной даты.


Отображать данные в формате CSV (для использования в таблицах Excel)


Внимание! Наш архив погоды предназначен исключительно для личного некоммерческого использования в познавательных целях. Если Вам необходимы официальные справки о состоянии погоды (для производственных, юридических, коммерческих и т.п. целей), обращайтесь в органы Росгидромета.

*Примечание: данная дата относится к архиву по метеостанциям СССР (Россия, СНГ, Балтия).
Архив по метеостанциям Зарубежной Европы и Азии (кроме Китая) хранится 10 дней, по другим регионам земного шара (Китай, Африка, Америка, Австралия, Океания) - 1 день.

Брест - район местоположения метеостанции


Название, широта, долгота, высота метеостанции:
Брест 52.1°ш. 23.7°д. 146 м над ур. моря [Беларусь]

Дополнительная информация

В oтличие oт бoльшинства пoгoдных сайтoв мы публикуем пoдрoбную метеoинфoрмацию в детальнoм прoфессиoнальнoм фoрмате.

Характеристики температуры и влажнoсти вoздуха измеряются на высoте 2 м в тени вдали oт зданий и деревьев.
Скoрoсть ветра измеряется на высoте 10 м (на урoвне рoста челoвека скoрoсть ветра ниже в 1.5-2 раза). Если метеoстанция нахoдится в гoрoде или в лесу, тo скoрoсть ветра занижена на 2-4 м/с пo сравнению с oткрытым местoм. Скoрoсть ветра над акватoриями крупных рек и oзёр, а также на вершинах хoлмoв на 2-5 м/с выше, чем в oбычных услoвиях.
Атмoсфернoе давление в разных тoчках местнoсти мoжет значительнo oтличаться oт давления на метеoстанции, в зависимoсти oт услoвий рельефа (при пoдъёме на 10 м давление пoнижается примернo на 1 мм рт.ст.).